This is the latest recevied weather packets stored in our database for station/object W2OBX. If no packets are shown the sender has not sent any weather packets the latest 10 day(s).
| Time | Temp. | Humidity | Pressure | Rain* | Wind** | Luminosity | Snow |
|---|---|---|---|---|---|---|---|
| 1777994963 | 22.22° C | 50% | 1015.6 hPa | 0 mm | - | 83 W/m² | - |
| 1777994660 | 21.67° C | 51% | 1015.6 hPa | 0 mm | - | 80 W/m² | - |
| 1777994360 | 21.11° C | 54% | 1015.6 hPa | 0 mm | - | 64 W/m² | - |
| 1777994056 | 21.11° C | 60% | 1015.7 hPa | 0 mm | - | 50 W/m² | - |
| 1777993754 | 20.56° C | 56% | 1015.8 hPa | 0 mm | - | 48 W/m² | - |
| 1777993451 | 20.56° C | 59% | 1015.5 hPa | 0 mm | - | 54 W/m² | - |
| 1777993145 | 20.56° C | 62% | 1015.7 hPa | 0 mm | - | 63 W/m² | - |
| 1777992843 | 20.56° C | 62% | 1015.9 hPa | 0 mm | - | 64 W/m² | - |
| 1777992540 | 20° C | 59% | 1015.7 hPa | 0 mm | - | 67 W/m² | - |
| 1777992239 | 20° C | 64% | 1015.7 hPa | 0 mm | - | 70 W/m² | - |
| 1777991935 | 20° C | 64% | 1015.8 hPa | 0 mm | - | 67 W/m² | - |
| 1777991633 | 19.44° C | 63% | 1015.9 hPa | 0 mm | - | 65 W/m² | - |
| 1777991330 | 19.44° C | 66% | 1015.8 hPa | 0 mm | - | 66 W/m² | - |
| 1777991027 | 18.89° C | 66% | 1016.1 hPa | 0 mm | - | 66 W/m² | - |
| 1777990724 | 18.89° C | 63% | 1015.9 hPa | 0 mm | - | 62 W/m² | - |
| 1777990422 | 18.33° C | 66% | 1016.1 hPa | 0 mm | - | 57 W/m² | - |
| 1777989815 | 17.22° C | 69% | 1016.1 hPa | 0 mm | - | 49 W/m² | - |
| 1777989512 | 16.67° C | 73% | 1015.8 hPa | 0 mm | - | 48 W/m² | - |
| 1777989208 | 16.67° C | 77% | 1015.8 hPa | 0 mm | - | 48 W/m² | - |
| 1777988904 | 16.11° C | 81% | 1015.7 hPa | 0 mm | - | 39 W/m² | - |
| 1777988601 | 15.56° C | 82% | 1015.8 hPa | 0 mm | - | 35 W/m² | - |
| 1777988298 | 15° C | 84% | 1015.8 hPa | 0 mm | - | 34 W/m² | - |
| 1777987995 | 15° C | 86% | 1015.7 hPa | 0 mm | - | 33 W/m² | - |
| 1777987690 | 14.44° C | 88% | 1015.9 hPa | 0 mm | - | 29 W/m² | - |
| 1777987388 | 13.89° C | 90% | 1016.1 hPa | 0 mm | - | 27 W/m² | - |
* Rain latest hour (hover to see other rain measurements)
** Current wind speed in m/s (hover to see current wind gust speed)